Year,Month,Day,Hour,Minute,Value (Times are PST for temperature in C)
2010,08,14,00,00,16.60
2010,08,14,00,01,16.60
2010,08,14,00,02,16.60
2010,08,14,00,03,16.60
2010,08,14,00,04,16.60
2010,08,14,00,05,16.60
2010,08,14,00,06,16.60
2010,08,14,00,07,16.60
2010,08,14,00,08,16.60
2010,08,14,00,09,16.60
2010,08,14,00,10,16.60
2010,08,14,00,11,16.60
2010,08,14,00,12,16.50
2010,08,14,00,13,16.50
2010,08,14,00,14,16.50
2010,08,14,00,15,16.50
2010,08,14,00,16,16.50
2010,08,14,00,17,16.50
2010,08,14,00,18,16.50
2010,08,14,00,19,16.50
2010,08,14,00,20,16.50
2010,08,14,00,21,16.40
2010,08,14,00,22,16.40
2010,08,14,00,23,16.40
2010,08,14,00,24,16.40
2010,08,14,00,25,16.40
2010,08,14,00,26,16.30
2010,08,14,00,27,16.30
2010,08,14,00,28,16.20
2010,08,14,00,29,16.20
2010,08,14,00,30,16.20
2010,08,14,00,31,16.10
2010,08,14,00,32,16.10
2010,08,14,00,33,16.10
2010,08,14,00,34,16.10
2010,08,14,00,35,16.00
2010,08,14,00,36,16.00
2010,08,14,00,37,15.90
2010,08,14,00,38,15.90
2010,08,14,00,39,15.90
2010,08,14,00,40,15.90
2010,08,14,00,41,15.90
2010,08,14,00,42,15.80
2010,08,14,00,43,15.80
2010,08,14,00,44,15.80
2010,08,14,00,45,15.80
2010,08,14,00,46,15.80
2010,08,14,00,47,15.80
2010,08,14,00,48,15.80
2010,08,14,00,49,15.80
2010,08,14,00,50,15.80
2010,08,14,00,51,15.80
2010,08,14,00,52,15.80
2010,08,14,00,53,15.80
2010,08,14,00,54,15.80
2010,08,14,00,55,15.80
2010,08,14,00,56,15.80
2010,08,14,00,57,15.80
2010,08,14,00,58,15.80
2010,08,14,00,59,15.80
2010,08,14,01,00,15.80
2010,08,14,01,01,15.80
2010,08,14,01,02,15.80
2010,08,14,01,03,15.80
2010,08,14,01,04,15.80
2010,08,14,01,05,15.70
2010,08,14,01,06,15.70
2010,08,14,01,07,15.70
2010,08,14,01,08,15.70
2010,08,14,01,09,15.70
2010,08,14,01,10,15.60
2010,08,14,01,11,15.60
2010,08,14,01,12,15.60
2010,08,14,01,13,15.60
2010,08,14,01,14,15.60
2010,08,14,01,15,15.50
2010,08,14,01,16,15.50
2010,08,14,01,17,15.50
2010,08,14,01,18,15.50
2010,08,14,01,19,15.50
2010,08,14,01,20,15.40
2010,08,14,01,21,15.40
2010,08,14,01,22,15.40
2010,08,14,01,23,15.40
2010,08,14,01,24,15.40
2010,08,14,01,25,15.30
2010,08,14,01,26,15.30
2010,08,14,01,27,15.30
2010,08,14,01,28,15.30
2010,08,14,01,29,15.20
2010,08,14,01,30,15.20
2010,08,14,01,31,15.20
2010,08,14,01,32,15.20
2010,08,14,01,33,15.20
2010,08,14,01,34,15.20
2010,08,14,01,35,15.20
2010,08,14,01,36,15.20
2010,08,14,01,37,15.30
2010,08,14,01,38,15.20
2010,08,14,01,39,15.20
2010,08,14,01,40,15.20
2010,08,14,01,41,15.20
2010,08,14,01,42,15.20
2010,08,14,01,43,15.20
2010,08,14,01,44,15.20
2010,08,14,01,45,15.20
2010,08,14,01,46,15.20
2010,08,14,01,47,15.10
2010,08,14,01,48,15.10
2010,08,14,01,49,15.10
2010,08,14,01,50,15.10
2010,08,14,01,51,15.00
2010,08,14,01,52,15.00
2010,08,14,01,53,15.00
2010,08,14,01,54,15.10
2010,08,14,01,55,15.00
2010,08,14,01,56,15.10
2010,08,14,01,57,15.00
2010,08,14,01,58,15.00
2010,08,14,01,59,15.00
2010,08,14,02,00,15.00
2010,08,14,02,01,15.00
2010,08,14,02,02,15.00
2010,08,14,02,03,15.00
2010,08,14,02,04,15.00
2010,08,14,02,05,15.00
2010,08,14,02,06,15.00
2010,08,14,02,07,15.00
2010,08,14,02,08,15.00
2010,08,14,02,09,15.00
2010,08,14,02,10,15.00
2010,08,14,02,11,15.00
2010,08,14,02,12,15.00
2010,08,14,02,13,15.00
2010,08,14,02,14,15.00
2010,08,14,02,15,15.00
2010,08,14,02,16,15.00
2010,08,14,02,17,15.00
2010,08,14,02,18,15.00
2010,08,14,02,19,15.00
2010,08,14,02,20,15.00
2010,08,14,02,21,15.00
2010,08,14,02,22,15.00
2010,08,14,02,23,15.00
2010,08,14,02,24,15.00
2010,08,14,02,25,15.00
2010,08,14,02,26,15.00
2010,08,14,02,27,14.90
2010,08,14,02,28,14.90
2010,08,14,02,29,14.90
2010,08,14,02,30,14.80
2010,08,14,02,31,14.80
2010,08,14,02,32,14.80
2010,08,14,02,33,14.80
2010,08,14,02,34,14.70
2010,08,14,02,35,14.70
2010,08,14,02,36,14.70
2010,08,14,02,37,14.70
2010,08,14,02,38,14.70
2010,08,14,02,39,14.60
2010,08,14,02,40,14.60
2010,08,14,02,41,14.60
2010,08,14,02,42,14.60
2010,08,14,02,43,14.60
2010,08,14,02,44,14.50
2010,08,14,02,45,14.50
2010,08,14,02,46,14.40
2010,08,14,02,47,14.40
2010,08,14,02,48,14.40
2010,08,14,02,49,14.40
2010,08,14,02,50,14.40
2010,08,14,02,51,14.30
2010,08,14,02,52,14.30
2010,08,14,02,53,14.30
2010,08,14,02,54,14.30
2010,08,14,02,55,14.30
2010,08,14,02,56,14.30
2010,08,14,02,57,14.20
2010,08,14,02,58,14.20
2010,08,14,02,59,14.20
2010,08,14,03,00,14.20
2010,08,14,03,01,14.10
2010,08,14,03,02,14.10
2010,08,14,03,03,14.10
2010,08,14,03,04,14.10
2010,08,14,03,05,14.10
2010,08,14,03,06,14.10
2010,08,14,03,07,14.10
2010,08,14,03,08,14.10
2010,08,14,03,09,14.10
2010,08,14,03,10,14.10
2010,08,14,03,11,14.10
2010,08,14,03,12,14.10
2010,08,14,03,13,14.10
2010,08,14,03,14,14.10
2010,08,14,03,15,14.10
2010,08,14,03,16,14.10
2010,08,14,03,17,14.10
2010,08,14,03,18,14.10
2010,08,14,03,19,14.10
2010,08,14,03,20,14.10
2010,08,14,03,21,14.10
2010,08,14,03,22,14.10
2010,08,14,03,23,14.10
2010,08,14,03,24,14.10
2010,08,14,03,25,14.10
2010,08,14,03,26,14.10
2010,08,14,03,27,14.10
2010,08,14,03,28,14.10
2010,08,14,03,29,14.10
2010,08,14,03,30,14.10
2010,08,14,03,31,14.10
2010,08,14,03,32,14.10
2010,08,14,03,33,14.10
2010,08,14,03,34,14.20
2010,08,14,03,35,14.20
2010,08,14,03,36,14.20
2010,08,14,03,37,14.20
2010,08,14,03,38,14.20
2010,08,14,03,39,14.20
2010,08,14,03,40,14.20
2010,08,14,03,41,14.30
2010,08,14,03,42,14.20
2010,08,14,03,43,14.30
2010,08,14,03,44,14.30
2010,08,14,03,45,14.30
2010,08,14,03,46,14.30
2010,08,14,03,47,14.30
2010,08,14,03,48,14.30
2010,08,14,03,49,14.30
2010,08,14,03,50,14.30
2010,08,14,03,51,14.30
2010,08,14,03,52,14.30
2010,08,14,03,53,14.20
2010,08,14,03,54,14.20
2010,08,14,03,55,14.20
2010,08,14,03,56,14.10
2010,08,14,03,57,14.10
2010,08,14,03,58,14.00
2010,08,14,03,59,14.00
2010,08,14,04,00,13.90
2010,08,14,04,01,13.90
2010,08,14,04,02,13.90
2010,08,14,04,03,13.80
2010,08,14,04,04,13.80
2010,08,14,04,05,13.80
2010,08,14,04,06,13.70
2010,08,14,04,07,13.70
2010,08,14,04,08,13.70
2010,08,14,04,09,13.70
2010,08,14,04,10,13.70
2010,08,14,04,11,13.70
2010,08,14,04,12,13.70
2010,08,14,04,13,13.70
2010,08,14,04,14,13.70
2010,08,14,04,15,13.70
2010,08,14,04,16,13.70
2010,08,14,04,17,13.70
2010,08,14,04,18,13.70
2010,08,14,04,19,13.70
2010,08,14,04,20,13.80
2010,08,14,04,21,13.80
2010,08,14,04,22,13.80
2010,08,14,04,23,13.80
2010,08,14,04,24,13.80
2010,08,14,04,25,13.90
2010,08,14,04,26,13.90
2010,08,14,04,27,13.90
2010,08,14,04,28,13.90
2010,08,14,04,29,13.90
2010,08,14,04,30,13.90
2010,08,14,04,31,13.90
2010,08,14,04,32,14.00
2010,08,14,04,33,13.90
2010,08,14,04,34,13.90
2010,08,14,04,35,13.90
2010,08,14,04,36,13.90
2010,08,14,04,37,13.90
2010,08,14,04,38,14.00
2010,08,14,04,39,14.00
2010,08,14,04,40,14.00
2010,08,14,04,41,14.00
2010,08,14,04,42,14.00
2010,08,14,04,43,14.00
2010,08,14,04,44,14.00
2010,08,14,04,45,14.10
2010,08,14,04,46,14.10
2010,08,14,04,47,14.00
2010,08,14,04,48,14.00
2010,08,14,04,49,14.00
2010,08,14,04,50,14.00
2010,08,14,04,51,14.00
2010,08,14,04,52,14.00
2010,08,14,04,53,14.00
2010,08,14,04,54,14.00
2010,08,14,04,55,14.00
2010,08,14,04,56,14.00
2010,08,14,04,57,14.00
2010,08,14,04,58,14.00
2010,08,14,04,59,14.10
2010,08,14,05,00,14.10
2010,08,14,05,01,14.10
2010,08,14,05,02,14.20
2010,08,14,05,03,14.30
2010,08,14,05,04,14.50
2010,08,14,05,05,14.70
2010,08,14,05,06,14.90
2010,08,14,05,07,15.00
2010,08,14,05,08,15.10
2010,08,14,05,09,15.30
2010,08,14,05,10,15.50
2010,08,14,05,11,15.70
2010,08,14,05,12,15.90
2010,08,14,05,13,16.00
2010,08,14,05,14,16.20
2010,08,14,05,15,16.50
2010,08,14,05,16,16.70
2010,08,14,05,17,16.90
2010,08,14,05,18,17.10
2010,08,14,05,19,17.30
2010,08,14,05,20,17.60
2010,08,14,05,21,17.80
2010,08,14,05,22,18.00
2010,08,14,05,23,18.20
2010,08,14,05,24,18.40
2010,08,14,05,25,18.60
2010,08,14,05,26,18.70
2010,08,14,05,27,18.90
2010,08,14,05,28,19.00
2010,08,14,05,29,19.10
2010,08,14,05,30,19.10
2010,08,14,05,31,19.20
2010,08,14,05,32,19.20
2010,08,14,05,33,19.30
2010,08,14,05,34,19.40
2010,08,14,05,35,19.40
2010,08,14,05,36,19.40
2010,08,14,05,37,19.40
2010,08,14,05,38,19.50
2010,08,14,05,39,19.50
2010,08,14,05,40,19.60
2010,08,14,05,41,19.70
2010,08,14,05,42,19.70
2010,08,14,05,43,19.80
2010,08,14,05,44,19.80
2010,08,14,05,45,19.70
2010,08,14,05,46,19.50
2010,08,14,05,47,19.40
2010,08,14,05,48,19.30
2010,08,14,05,49,19.30
2010,08,14,05,50,19.30
2010,08,14,05,51,19.30
2010,08,14,05,52,19.40
2010,08,14,05,53,19.60
2010,08,14,05,54,19.70
2010,08,14,05,55,19.70
2010,08,14,05,56,19.80
2010,08,14,05,57,19.80
2010,08,14,05,58,19.90
2010,08,14,05,59,19.90
2010,08,14,06,00,19.90
2010,08,14,06,01,19.90
2010,08,14,06,02,20.00
2010,08,14,06,03,20.00
2010,08,14,06,04,20.00
2010,08,14,06,05,20.00
2010,08,14,06,06,20.10
2010,08,14,06,07,20.00
2010,08,14,06,08,20.00
2010,08,14,06,09,20.00
2010,08,14,06,10,20.00
2010,08,14,06,11,20.00
2010,08,14,06,12,20.00
2010,08,14,06,13,19.90
2010,08,14,06,14,19.90
2010,08,14,06,15,19.90
2010,08,14,06,16,19.90
2010,08,14,06,17,19.90
2010,08,14,06,18,19.90
2010,08,14,06,19,19.80
2010,08,14,06,20,19.80
2010,08,14,06,21,19.80
2010,08,14,06,22,19.70
2010,08,14,06,23,19.60
2010,08,14,06,24,19.50
2010,08,14,06,25,19.50
2010,08,14,06,26,19.30
2010,08,14,06,27,19.20
2010,08,14,06,28,19.00
2010,08,14,06,29,18.90
2010,08,14,06,30,18.80
2010,08,14,06,31,18.80
2010,08,14,06,32,18.80
2010,08,14,06,33,18.80
2010,08,14,06,34,18.80
2010,08,14,06,35,18.80
2010,08,14,06,36,18.80
2010,08,14,06,37,18.80
2010,08,14,06,38,18.80
2010,08,14,06,39,18.70
2010,08,14,06,40,18.70
2010,08,14,06,41,18.60
2010,08,14,06,42,18.60
2010,08,14,06,43,18.50
2010,08,14,06,44,18.50
2010,08,14,06,45,18.60
2010,08,14,06,46,18.40
2010,08,14,06,47,18.20
2010,08,14,06,48,18.00
2010,08,14,06,49,17.90
2010,08,14,06,50,17.80
2010,08,14,06,51,17.70
2010,08,14,06,52,17.60
2010,08,14,06,53,17.50
2010,08,14,06,54,17.50
2010,08,14,06,55,17.50
2010,08,14,06,56,17.40
2010,08,14,06,57,17.40
2010,08,14,06,58,17.30
2010,08,14,06,59,17.30
2010,08,14,07,00,17.20
2010,08,14,07,01,17.10
2010,08,14,07,02,17.10
2010,08,14,07,03,17.00
2010,08,14,07,04,16.90
2010,08,14,07,05,16.90
2010,08,14,07,06,16.80
2010,08,14,07,07,16.80
2010,08,14,07,08,16.80
2010,08,14,07,09,16.70
2010,08,14,07,10,16.60
2010,08,14,07,11,16.50
2010,08,14,07,12,16.40
2010,08,14,07,13,16.40
2010,08,14,07,14,16.30
2010,08,14,07,15,16.30
2010,08,14,07,16,16.30
2010,08,14,07,17,16.30
2010,08,14,07,18,16.40
2010,08,14,07,19,16.40
2010,08,14,07,20,16.50
2010,08,14,07,21,16.60
2010,08,14,07,22,16.70
2010,08,14,07,23,16.70
2010,08,14,07,24,16.80
2010,08,14,07,25,16.90
2010,08,14,07,26,17.00
2010,08,14,07,27,17.10
2010,08,14,07,28,17.20
2010,08,14,07,29,17.30
2010,08,14,07,30,17.40
2010,08,14,07,31,17.60
2010,08,14,07,32,17.70
2010,08,14,07,33,17.70
2010,08,14,07,34,17.80
2010,08,14,07,35,18.00
2010,08,14,07,36,18.10
2010,08,14,07,37,18.20
2010,08,14,07,38,18.40
2010,08,14,07,39,18.50
2010,08,14,07,40,18.60
2010,08,14,07,41,18.80
2010,08,14,07,42,18.90
2010,08,14,07,43,19.00
2010,08,14,07,44,19.10
2010,08,14,07,45,19.20
2010,08,14,07,46,19.30
2010,08,14,07,47,19.40
2010,08,14,07,48,19.50
2010,08,14,07,49,19.70
2010,08,14,07,50,19.80
2010,08,14,07,51,19.90
2010,08,14,07,52,20.00
2010,08,14,07,53,20.20
2010,08,14,07,54,20.20
2010,08,14,07,55,20.30
2010,08,14,07,56,20.40
2010,08,14,07,57,20.50
2010,08,14,07,58,20.60
2010,08,14,07,59,20.80
2010,08,14,08,00,20.90
2010,08,14,08,01,21.00
2010,08,14,08,02,21.20
2010,08,14,08,03,21.30
2010,08,14,08,04,21.50
2010,08,14,08,05,21.60
2010,08,14,08,06,21.80
2010,08,14,08,07,21.90
2010,08,14,08,08,22.00
2010,08,14,08,09,22.20
2010,08,14,08,10,22.30
2010,08,14,08,11,22.50
2010,08,14,08,12,22.60
2010,08,14,08,13,22.80
2010,08,14,08,14,23.00
2010,08,14,08,15,23.10
2010,08,14,08,16,23.30
2010,08,14,08,17,23.40
2010,08,14,08,18,23.50
2010,08,14,08,19,23.50
2010,08,14,08,20,23.50
2010,08,14,08,21,23.40
2010,08,14,08,22,23.40
2010,08,14,08,23,23.50
2010,08,14,08,24,23.60
2010,08,14,08,25,23.70
2010,08,14,08,26,23.80
2010,08,14,08,27,23.90
2010,08,14,08,28,24.00
2010,08,14,08,29,24.10
2010,08,14,08,30,24.20
2010,08,14,08,31,24.30
2010,08,14,08,32,24.50
2010,08,14,08,33,24.60
2010,08,14,08,34,24.80
2010,08,14,08,35,24.90
2010,08,14,08,36,25.00
2010,08,14,08,37,25.10
2010,08,14,08,38,25.20
2010,08,14,08,39,25.30
2010,08,14,08,40,25.30
2010,08,14,08,41,25.40
2010,08,14,08,42,25.40
2010,08,14,08,43,25.50
2010,08,14,08,44,25.50
2010,08,14,08,45,25.60
2010,08,14,08,46,25.60
2010,08,14,08,47,25.60
2010,08,14,08,48,25.60
2010,08,14,08,49,25.60
2010,08,14,08,50,25.70
2010,08,14,08,51,25.70
2010,08,14,08,52,25.70
2010,08,14,08,53,25.70
2010,08,14,08,54,25.70
2010,08,14,08,55,25.80
2010,08,14,08,56,25.80
2010,08,14,08,57,25.80
2010,08,14,08,58,25.90
2010,08,14,08,59,25.90
2010,08,14,09,00,25.90
2010,08,14,09,01,26.00
2010,08,14,09,02,26.10
2010,08,14,09,03,26.10
2010,08,14,09,04,26.20
2010,08,14,09,05,26.20
2010,08,14,09,06,26.20
2010,08,14,09,07,26.20
2010,08,14,09,08,26.20
2010,08,14,09,09,26.30
2010,08,14,09,10,26.30
2010,08,14,09,11,26.30
2010,08,14,09,12,26.30
2010,08,14,09,13,26.20
2010,08,14,09,14,26.20
2010,08,14,09,15,26.20
2010,08,14,09,16,26.20
2010,08,14,09,17,26.20
2010,08,14,09,18,26.20
2010,08,14,09,19,26.30
2010,08,14,09,20,26.30
2010,08,14,09,21,26.30
2010,08,14,09,22,26.30
2010,08,14,09,23,26.40
2010,08,14,09,24,26.40
2010,08,14,09,25,26.50
2010,08,14,09,26,26.60
2010,08,14,09,27,26.60
2010,08,14,09,28,26.70
2010,08,14,09,29,26.70
2010,08,14,09,30,26.70
2010,08,14,09,31,26.60
2010,08,14,09,32,26.60
2010,08,14,09,33,26.60
2010,08,14,09,34,26.60
2010,08,14,09,35,26.60
2010,08,14,09,36,26.60
2010,08,14,09,37,26.60
2010,08,14,09,38,26.50
2010,08,14,09,39,26.50
2010,08,14,09,40,26.60
2010,08,14,09,41,26.60
2010,08,14,09,42,26.60
2010,08,14,09,43,26.60
2010,08,14,09,44,26.60
2010,08,14,09,45,26.60
2010,08,14,09,46,26.70
2010,08,14,09,47,26.70
2010,08,14,09,48,26.70
2010,08,14,09,49,26.70
2010,08,14,09,50,26.80
2010,08,14,09,51,26.80
2010,08,14,09,52,26.80
2010,08,14,09,53,26.80
2010,08,14,09,54,26.80
2010,08,14,09,55,26.90
2010,08,14,09,56,26.90
2010,08,14,09,57,26.90
2010,08,14,09,58,27.00
2010,08,14,09,59,27.00
2010,08,14,10,00,27.00
2010,08,14,10,01,27.00
2010,08,14,10,02,27.00
2010,08,14,10,03,27.00
2010,08,14,10,04,27.00
2010,08,14,10,05,27.00
2010,08,14,10,06,26.90
2010,08,14,10,07,26.90
2010,08,14,10,08,26.80
2010,08,14,10,09,26.80
2010,08,14,10,10,26.80
2010,08,14,10,11,26.90
2010,08,14,10,12,27.00
2010,08,14,10,13,27.00
2010,08,14,10,14,27.10
2010,08,14,10,15,27.10
2010,08,14,10,16,27.10
2010,08,14,10,17,27.10
2010,08,14,10,18,27.10
2010,08,14,10,19,27.10
2010,08,14,10,20,27.10
2010,08,14,10,21,27.10
2010,08,14,10,22,27.20
2010,08,14,10,23,27.20
2010,08,14,10,24,27.20
2010,08,14,10,25,27.20
2010,08,14,10,26,27.30
2010,08,14,10,27,27.30
2010,08,14,10,28,27.30
2010,08,14,10,29,27.30
2010,08,14,10,30,27.40
2010,08,14,10,31,27.40
2010,08,14,10,32,27.30
2010,08,14,10,33,27.30
2010,08,14,10,34,27.20
2010,08,14,10,35,27.20
2010,08,14,10,36,27.20
2010,08,14,10,37,27.30
2010,08,14,10,38,27.40
2010,08,14,10,39,27.40
2010,08,14,10,40,27.40
2010,08,14,10,41,27.50
2010,08,14,10,42,27.50
2010,08,14,10,43,27.50
2010,08,14,10,44,27.50
2010,08,14,10,45,27.40
2010,08,14,10,46,27.40
2010,08,14,10,47,27.30
2010,08,14,10,48,27.30
2010,08,14,10,49,27.40
2010,08,14,10,50,27.50
2010,08,14,10,51,27.50
2010,08,14,10,52,27.60
2010,08,14,10,53,27.60
2010,08,14,10,54,27.60
2010,08,14,10,55,27.60
2010,08,14,10,56,27.50
2010,08,14,10,57,27.50
2010,08,14,10,58,27.40
2010,08,14,10,59,27.40
2010,08,14,11,00,27.40
2010,08,14,11,01,27.40
2010,08,14,11,02,27.50
2010,08,14,11,03,27.60
2010,08,14,11,04,27.60
2010,08,14,11,05,27.50
2010,08,14,11,06,27.60
2010,08,14,11,07,27.60
2010,08,14,11,08,27.70
2010,08,14,11,09,27.70
2010,08,14,11,10,27.80
2010,08,14,11,11,27.90
2010,08,14,11,12,27.90
2010,08,14,11,13,27.90
2010,08,14,11,14,27.90
2010,08,14,11,15,27.90
2010,08,14,11,16,27.80
2010,08,14,11,17,27.80
2010,08,14,11,18,27.80
2010,08,14,11,19,27.80
2010,08,14,11,20,27.80
2010,08,14,11,21,27.80
2010,08,14,11,22,27.80
2010,08,14,11,23,27.80
2010,08,14,11,24,27.80
2010,08,14,11,25,27.90
2010,08,14,11,26,27.90
2010,08,14,11,27,28.00
2010,08,14,11,28,28.00
2010,08,14,11,29,28.10
2010,08,14,11,30,28.10
2010,08,14,11,31,28.10
2010,08,14,11,32,28.10
2010,08,14,11,33,28.10
2010,08,14,11,34,28.10
2010,08,14,11,35,28.10
2010,08,14,11,36,28.10
2010,08,14,11,37,28.00
2010,08,14,11,38,28.00
2010,08,14,11,39,28.00
2010,08,14,11,40,28.10
2010,08,14,11,41,28.10
2010,08,14,11,42,28.20
2010,08,14,11,43,28.20
2010,08,14,11,44,28.20
2010,08,14,11,45,28.30
2010,08,14,11,46,28.30
2010,08,14,11,47,28.20
2010,08,14,11,48,28.10
2010,08,14,11,49,28.10
2010,08,14,11,50,28.10
2010,08,14,11,51,28.10
2010,08,14,11,52,28.20
2010,08,14,11,53,28.20
2010,08,14,11,54,28.10
2010,08,14,11,55,28.10
2010,08,14,11,56,28.20
2010,08,14,11,57,28.20
2010,08,14,11,58,28.20
2010,08,14,11,59,28.20
2010,08,14,12,00,28.20
2010,08,14,12,01,28.20
2010,08,14,12,02,28.10
2010,08,14,12,03,28.10
2010,08,14,12,04,28.10
2010,08,14,12,05,28.10
2010,08,14,12,06,28.20
2010,08,14,12,07,28.20
2010,08,14,12,08,28.30
2010,08,14,12,09,28.30
2010,08,14,12,10,28.40
2010,08,14,12,11,28.40
2010,08,14,12,12,28.50
2010,08,14,12,13,28.60
2010,08,14,12,14,28.70
2010,08,14,12,15,28.80
2010,08,14,12,16,28.80
2010,08,14,12,17,28.80
2010,08,14,12,18,28.80
2010,08,14,12,19,28.80
2010,08,14,12,20,28.80
2010,08,14,12,21,28.80
2010,08,14,12,22,28.70
2010,08,14,12,23,28.70
2010,08,14,12,24,28.60
2010,08,14,12,25,28.50
2010,08,14,12,26,28.40
2010,08,14,12,27,28.30
2010,08,14,12,28,28.40
2010,08,14,12,29,28.40
2010,08,14,12,30,28.40
2010,08,14,12,31,28.40
2010,08,14,12,32,28.50
2010,08,14,12,33,28.50
2010,08,14,12,34,28.60
2010,08,14,12,35,28.60
2010,08,14,12,36,28.60
2010,08,14,12,37,28.70
2010,08,14,12,38,28.70
2010,08,14,12,39,28.70
2010,08,14,12,40,28.60
2010,08,14,12,41,28.60
2010,08,14,12,42,28.60
2010,08,14,12,43,28.60
2010,08,14,12,44,28.60
2010,08,14,12,45,28.70
2010,08,14,12,46,28.90
2010,08,14,12,47,28.90
2010,08,14,12,48,28.90
2010,08,14,12,49,28.90
2010,08,14,12,50,29.00
2010,08,14,12,51,29.10
2010,08,14,12,52,29.20
2010,08,14,12,53,29.20
2010,08,14,12,54,29.20
2010,08,14,12,55,29.20
2010,08,14,12,56,29.20
2010,08,14,12,57,29.20
2010,08,14,12,58,29.30
2010,08,14,12,59,29.40
2010,08,14,13,00,29.40
2010,08,14,13,01,29.40
2010,08,14,13,02,29.40
2010,08,14,13,03,29.40
2010,08,14,13,04,29.30
2010,08,14,13,05,29.30
2010,08,14,13,06,29.30
2010,08,14,13,07,29.30
2010,08,14,13,08,29.30
2010,08,14,13,09,29.30
2010,08,14,13,10,29.30
2010,08,14,13,11,29.30
2010,08,14,13,12,29.30
2010,08,14,13,13,29.20
2010,08,14,13,14,29.20
2010,08,14,13,15,29.20
2010,08,14,13,16,29.20
2010,08,14,13,17,29.30
2010,08,14,13,18,29.40
2010,08,14,13,19,29.40
2010,08,14,13,20,29.40
2010,08,14,13,21,29.40
2010,08,14,13,22,29.30
2010,08,14,13,23,29.30
2010,08,14,13,24,29.40
2010,08,14,13,25,29.40
2010,08,14,13,26,29.40
2010,08,14,13,27,29.50
2010,08,14,13,28,29.50
2010,08,14,13,29,29.60
2010,08,14,13,30,29.60
2010,08,14,13,31,29.60
2010,08,14,13,32,29.60
2010,08,14,13,33,29.70
2010,08,14,13,34,29.70
2010,08,14,13,35,29.70
2010,08,14,13,36,29.80
2010,08,14,13,37,29.80
2010,08,14,13,38,29.70
2010,08,14,13,39,29.70
2010,08,14,13,40,29.70
2010,08,14,13,41,29.70
2010,08,14,13,42,29.80
2010,08,14,13,43,29.80
2010,08,14,13,44,29.80
2010,08,14,13,45,29.70
2010,08,14,13,46,29.70
2010,08,14,13,47,29.70
2010,08,14,13,48,29.70
2010,08,14,13,49,29.80
2010,08,14,13,50,29.80
2010,08,14,13,51,29.80
2010,08,14,13,52,29.70
2010,08,14,13,53,29.70
2010,08,14,13,54,29.70
2010,08,14,13,55,29.80
2010,08,14,13,56,29.90
2010,08,14,13,57,29.90
2010,08,14,13,58,29.90
2010,08,14,13,59,29.90
2010,08,14,14,00,30.00
2010,08,14,14,01,30.10
2010,08,14,14,02,30.20
2010,08,14,14,03,30.40
2010,08,14,14,04,30.50
2010,08,14,14,05,30.60
2010,08,14,14,06,30.60
2010,08,14,14,07,30.60
2010,08,14,14,08,30.70
2010,08,14,14,09,30.60
2010,08,14,14,10,30.60
2010,08,14,14,11,30.50
2010,08,14,14,12,30.40
2010,08,14,14,13,30.30
2010,08,14,14,14,30.30
2010,08,14,14,15,30.30
2010,08,14,14,16,30.40
2010,08,14,14,17,30.50
2010,08,14,14,18,30.50
2010,08,14,14,19,30.50
2010,08,14,14,20,30.40
2010,08,14,14,21,30.40
2010,08,14,14,22,30.50
2010,08,14,14,23,30.50
2010,08,14,14,24,30.60
2010,08,14,14,25,30.50
2010,08,14,14,26,30.50
2010,08,14,14,27,30.50
2010,08,14,14,28,30.50
2010,08,14,14,29,30.50
2010,08,14,14,30,30.60
2010,08,14,14,31,30.70
2010,08,14,14,32,30.70
2010,08,14,14,33,30.60
2010,08,14,14,34,30.60
2010,08,14,14,35,30.50
2010,08,14,14,36,30.50
2010,08,14,14,37,30.60
2010,08,14,14,38,30.60
2010,08,14,14,39,30.60
2010,08,14,14,40,30.50
2010,08,14,14,41,30.50
2010,08,14,14,42,30.40
2010,08,14,14,43,30.40
2010,08,14,14,44,30.30
2010,08,14,14,45,30.30
2010,08,14,14,46,30.40
2010,08,14,14,47,30.40
2010,08,14,14,48,30.50
2010,08,14,14,49,30.60
2010,08,14,14,50,30.60
2010,08,14,14,51,30.70
2010,08,14,14,52,30.80
2010,08,14,14,53,30.90
2010,08,14,14,54,31.00
2010,08,14,14,55,31.10
2010,08,14,14,56,31.20
2010,08,14,14,57,31.20
2010,08,14,14,58,31.30
2010,08,14,14,59,31.30
2010,08,14,15,00,31.20
2010,08,14,15,01,31.30
2010,08,14,15,02,31.30
2010,08,14,15,03,31.30
2010,08,14,15,04,31.30
2010,08,14,15,05,31.40
2010,08,14,15,06,31.50
2010,08,14,15,07,31.70
2010,08,14,15,08,31.80
2010,08,14,15,09,31.90
2010,08,14,15,10,31.90
2010,08,14,15,11,31.70
2010,08,14,15,12,31.60
2010,08,14,15,13,31.50
2010,08,14,15,14,31.50
2010,08,14,15,15,31.40
2010,08,14,15,16,31.30
2010,08,14,15,17,31.30
2010,08,14,15,18,31.30
2010,08,14,15,19,31.20
2010,08,14,15,20,31.20
2010,08,14,15,21,31.10
2010,08,14,15,22,31.10
2010,08,14,15,23,31.10
2010,08,14,15,24,31.20
2010,08,14,15,25,31.20
2010,08,14,15,26,31.20
2010,08,14,15,27,31.30
2010,08,14,15,28,31.30
2010,08,14,15,29,31.30
2010,08,14,15,30,31.20
2010,08,14,15,31,31.20
2010,08,14,15,32,31.20
2010,08,14,15,33,31.20
2010,08,14,15,34,31.10
2010,08,14,15,35,31.10
2010,08,14,15,36,31.10
2010,08,14,15,37,31.20
2010,08,14,15,38,31.20
2010,08,14,15,39,31.30
2010,08,14,15,40,31.30
2010,08,14,15,41,31.40
2010,08,14,15,42,31.40
2010,08,14,15,43,31.30
2010,08,14,15,44,31.30
2010,08,14,15,45,31.30
2010,08,14,15,46,31.20
2010,08,14,15,47,31.20
2010,08,14,15,48,31.20
2010,08,14,15,49,31.20
2010,08,14,15,50,31.20
2010,08,14,15,51,31.20
2010,08,14,15,52,31.20
2010,08,14,15,53,31.20
2010,08,14,15,54,31.30
2010,08,14,15,55,31.40
2010,08,14,15,56,31.50
2010,08,14,15,57,31.50
2010,08,14,15,58,31.50
2010,08,14,15,59,31.50
2010,08,14,16,00,31.40
2010,08,14,16,01,31.40
2010,08,14,16,02,31.40
2010,08,14,16,03,31.50
2010,08,14,16,04,31.60
2010,08,14,16,05,31.70
2010,08,14,16,06,31.80
2010,08,14,16,07,31.80
2010,08,14,16,08,31.80
2010,08,14,16,09,31.80
2010,08,14,16,10,31.80
2010,08,14,16,11,31.70
2010,08,14,16,12,31.70
2010,08,14,16,13,31.60
2010,08,14,16,14,31.60
2010,08,14,16,15,31.60
2010,08,14,16,16,31.50
2010,08,14,16,17,31.60
2010,08,14,16,18,31.60
2010,08,14,16,19,31.70
2010,08,14,16,20,31.80
2010,08,14,16,21,31.90
2010,08,14,16,22,31.90
2010,08,14,16,23,31.90
2010,08,14,16,24,32.00
2010,08,14,16,25,32.00
2010,08,14,16,26,32.10
2010,08,14,16,27,32.10
2010,08,14,16,28,32.10
2010,08,14,16,29,32.20
2010,08,14,16,30,32.20
2010,08,14,16,31,32.20
2010,08,14,16,32,32.20
2010,08,14,16,33,32.30
2010,08,14,16,34,32.30
2010,08,14,16,35,32.40
2010,08,14,16,36,32.50
2010,08,14,16,37,32.50
2010,08,14,16,38,32.60
2010,08,14,16,39,32.60
2010,08,14,16,40,32.50
2010,08,14,16,41,32.50
2010,08,14,16,42,32.50
2010,08,14,16,43,32.40
2010,08,14,16,44,32.40
2010,08,14,16,45,32.30
2010,08,14,16,46,32.20
2010,08,14,16,47,32.10
2010,08,14,16,48,32.10
2010,08,14,16,49,32.10
2010,08,14,16,50,32.10
2010,08,14,16,51,32.10
2010,08,14,16,52,32.10
2010,08,14,16,53,32.10
2010,08,14,16,54,32.10
2010,08,14,16,55,32.20
2010,08,14,16,56,32.20
2010,08,14,16,57,32.20
2010,08,14,16,58,32.30
2010,08,14,16,59,32.30
2010,08,14,17,00,32.30
2010,08,14,17,01,32.30
2010,08,14,17,02,32.20
2010,08,14,17,03,32.20
2010,08,14,17,04,32.20
2010,08,14,17,05,32.10
2010,08,14,17,06,32.10
2010,08,14,17,07,32.10
2010,08,14,17,08,32.10
2010,08,14,17,09,32.10
2010,08,14,17,10,32.20
2010,08,14,17,11,32.20
2010,08,14,17,12,32.20
2010,08,14,17,13,32.20
2010,08,14,17,14,32.20
2010,08,14,17,15,32.20
2010,08,14,17,16,32.10
2010,08,14,17,17,32.20
2010,08,14,17,18,32.20
2010,08,14,17,19,32.30